Regional Weather Roundup
Issued by NWS

Home | Current Version | Previous Version | Text Only | Print | Product List | Glossary On
Versions: 1 2 3 4 5 6 7 8 9 10 11 12 13 14 15 16 17 18 19 20 21 22 23 24 25 26 27 28 29 30 31 32 33 34 35 36 37 38 39 40 41 42 43 44 45 46 47 48 49 50
000
ASUS43 KMPX 180810
RWRMN
WEATHER ROUNDUP FOR MINNESOTA
NATIONAL WEATHER SERVICE TWIN CITIES/CHANHASSEN MN
200 AM CST MON DEC 18 2017


NOTE: "FAIR" INDICATES FEW OR NO CLOUDS BELOW 12,000 FEET WITH NO
SIGNIFICANT WEATHER AND/OR OBSTRUCTIONS TO VISIBILITY. N/A MEANS
CURRENT SKY AND/OR WEATHER CONDITIONS ARE NOT AVAILABLE.

MNZ060>063-068>070-180900-
   Twin Cities Metro

CITY           SKY/WX    TMP DP  RH WIND       PRES   REMARKS
TWIN CITIES    CLOUDY    26  26 100 CALM      29.89F FOG
ST PAUL        CLOUDY    27  25  92 CALM      29.91F FOG
CRYSTAL        CLOUDY    26  21  81 CALM      29.88F HAZE
BLAINE         CLOUDY    28  27  93 S3        29.88F FOG
LAKEVILLE        N/A     25  25 100 CALM      29.89F FOG
EDEN PRAIRIE   CLOUDY    26  24  92 S3        29.88F FOG
SOUTH ST PAUL  CLOUDY    27  26  96 SW3       29.90F FOG
LAKE ELMO      CLOUDY    27  27 100 SW3       29.90F FOG
$$
MNZ001>005-007-008-013>017-022>024-027-028-180900-
   Northwest Minnesota

CITY           SKY/WX    TMP DP  RH WIND       PRES   REMARKS
BEMIDJI        CLOUDY    27  26  96 S7        29.73F FOG     WCI  19
HALLOCK        CLOUDY    27  25  93 S15       29.60F WCI  15
ROSEAU         CLOUDY    30  25  80 S15       29.62F WCI  19
WARROAD        CLOUDY    28  25  86 S8G18     29.61F WCI  20
THIEF RVR FALL CLOUDY    30  28  92 S14       29.67F WCI  19
CROOKSTON      CLOUDY    28  28 100 S14       29.69S WCI  17
FOSSTON        CLOUDY    28  27  93 S13       29.70F WCI  18
DETROIT LAKES  CLOUDY    28  28 100 S6        29.75F FOG     WCI  22
MOORHEAD       MOCLDY    30  27  86 S14       29.74F WCI  20
PARK RAPIDS    CLOUDY    26  24  92 S7        29.75F WCI  18
MAHNOMEN       CLOUDY    30  28  94 S14       29.71F WCI  19
$$
MNZ006-009>011-018-025>026-180900-
   North Central Minnesota

CITY           SKY/WX    TMP DP  RH WIND       PRES   REMARKS
BAUDETTE       CLOUDY    25  22  88 S14G22    29.66F WCI  13
FLAG ISLAND    CLOUDY    25  23  93 S10       29.60F WCI  15
INTL FALLS     CLOUDY    25  22  88 VRB5      29.70F FOG     WCI  19
WASKISH        CLOUDY    27  25  93 S9G17     29.70F WCI  17
BIG FORK       CLOUDY    27  25  93 S8        29.74F WCI  18
LONGVILLE      CLOUDY    25  25 100 S6        29.78F WCI  18
GRAND RAPIDS   CLOUDY    25  23  92 S8        29.80F WCI  16
CRANE LAKE     CLOUDY    23  21  93 S8        29.78F WCI  14
ORR            CLOUDY    25  21  86 S7        29.73F WCI  17
COOK           CLOUDY    25  23  93 S3        29.77F FOG
WALKER         CLOUDY    27  25  95 S8        29.75F WCI  18
$$
MNZ012-019>021-037-180900-
   Northeast Minnesota

CITY           SKY/WX    TMP DP  RH WIND       PRES   REMARKS
DULUTH         FOG       23  23 100 SW7       29.81F VSB 1   WCI  15
ELY            CLOUDY    23  23 100 SW7       29.78F WCI  15
HIBBING        CLOUDY    25  24  96 S6        29.78F WCI  18
EVELETH        CLOUDY    24  22  90 SW10      29.79F WCI  14
DULUTH HARBOR  CLOUDY    27  25  93 S8        29.86F WCI  18
TWO HARBORS    CLOUDY    28  23  80 SW9       29.81F WCI  20
SILVER BAY     CLOUDY    27  25  93 SW6       29.79F WCI  20
GRAND MARAIS     N/A     25  22  88 VRB7      29.83F WCI  17
G MARAIS ARPRT CLOUDY    16  12  86 CALM      29.76F FOG
$$
MNZ029>031-032-039>041-046>048-054>057-064-180900-
   West Central Minnesota

CITY           SKY/WX    TMP DP  RH WIND       PRES   REMARKS
FERGUS FALLS   CLOUDY    28  28 100 S9        29.80F FOG     WCI  20
WHEATON        CLOUDY    34  30  86 S9        29.80F WCI  26
MORRIS         CLOUDY    28  27  93 SE6       29.79F FOG     WCI  22
ALEXANDRIA     CLOUDY    28  26  92 S9        29.80F WCI  19
ELBOW LAKE     FAIR      28  28  98 S10       29.78F FOG     WCI  19
WADENA         CLOUDY    25  25 100 S5        29.77F FOG     WCI  19
GLENWOOD       CLOUDY    28  27  93 S5        29.81F FOG     WCI  23
APPLETON       MOCLDY    34  28  80 S8        29.81F WCI  27
BENSON         CLOUDY    30  27  86 S7        29.83F WCI  23
ORTONVILLE     CLOUDY    34  28  80 CALM      29.80F
MADISON        CLOUDY    36  30  80 S7        29.82F
WILLMAR        CLOUDY    30  27  86 CALM      29.85F
$$
MNZ033>034-036-042>043-049>051-058-059-180900-
   Central Minnesota

CITY           SKY/WX    TMP DP  RH WIND       PRES   REMARKS
ST CLOUD       CLOUDY    25  22  88 S5        29.85F WCI  19
SAUK CENTRE    CLOUDY    27  24  90 S8        29.82F WCI  19
PAYNESVILLE    CLOUDY    28  26  91 S7        29.84F WCI  21
AITKIN         CLOUDY    23  19  86 S5        29.80F WCI  17
PINE RIVER     CLOUDY    23  21  93 S3        29.82F FOG
BRAINERD       CLOUDY    25  21  85 S7        29.81F FOG     WCI  17
STAPLES        CLOUDY    23  23 100 S7        29.78F FOG     WCI  15
LONG PRAIRIE   CLOUDY    27  23  86 SE6       29.81F FOG     WCI  20
LITTLE FALLS   CLOUDY    25  19  80 SE5       29.83F WCI  19
LITCHFIELD     CLOUDY    28  27  93 CALM      29.85F
BUFFALO        CLOUDY    26  23  91 CALM      29.87F FOG
MAPLE LAKE     CLOUDY    27  26  95 S5        29.87F FOG     WCI  22
HUTCHINSON     CLOUDY    28  26  92 CALM      29.87F
$$
MNZ037-044-045-052-053-180900-
   East Central Minnesota

CITY           SKY/WX    TMP DP  RH WIND       PRES   REMARKS
PRINCETON      CLOUDY    25  23  93 S5        29.85F FOG     WCI  19
MORA           CLOUDY    21  19  93 S3        29.87F
CAMBRIDGE      MOCLDY    27  23  86 S6        29.87F FOG     WCI  20
RUSH CITY      CLOUDY    23  22  95 S5        29.88F FOG     WCI  17
MOOSE LAKE     CLOUDY    23  21  93 S3        29.83F
HINCKLEY       CLOUDY    23  23 100 S3        29.86F FOG
CLOQUET        CLOUDY    23  21  93 S5        29.81F FOG     WCI  17
MCGREGOR       CLOUDY    27  21  80 S5        29.82F WCI  21
$$
MNZ071>073-080-081-089-090-097-098-180900-
   Southwest Minnesota

CITY           SKY/WX    TMP DP  RH WIND       PRES   REMARKS
MONTEVIDEO     CLOUDY    32  28  86 SW7       29.83F WCI  26
GRANITE FALLS  CLOUDY    33  29  86 S8        29.86S WCI  25
CANBY          CLOUDY    37  29  75 SW8       29.83F
MARSHALL       CLOUDY    33  28  81 SW8       29.85F WCI  26
REDWOOD FALLS  CLOUDY    30  27  88 S7        29.86F WCI  23
OLIVIA         CLOUDY    30  28  93 S3        29.85S
PIPESTONE      PTCLDY    27  25  93 SW7       29.84S WCI  19
WINDOM           N/A     30  18  59 S6        29.86F HAZE    WCI  24
WORTHINGTON    CLOUDY    28  26  92 SW8       29.87F WCI  20
JACKSON        CLOUDY    28  27  93 S7        29.87F FOG     WCI  21
SLAYTON        CLOUDY    29  27  92 S9        29.85F WCI  21
$$
MNZ065>067-074>077-082>085-091>093-180900-
   South Central Minnesota

CITY           SKY/WX    TMP DP  RH WIND       PRES   REMARKS
MANKATO        CLOUDY    26  24  92 S7        29.89F WCI  18
NEW ULM        CLOUDY    27  23  86 S5        29.87F WCI  21
ST JAMES       CLOUDY    28  25  86 S3        29.89F FOG
FAIRMONT       CLOUDY    28  26  92 W9        29.89F WCI  19
GLENCOE        CLOUDY    28  28 100 CALM      29.86F FOG
FARIBAULT      CLOUDY    27  27 100 CALM      29.90F FOG
OWATONNA       CLOUDY    28  27  93 SW3       29.90S FOG
WASECA         CLOUDY    28  27  93 S6        29.91F FOG     WCI  22
ALBERT LEA     CLOUDY    27  27 100 SW3       29.89F FOG
$$
MNZ078>079-086>088-094>096-180900-
   Southeast Minnesota

CITY           SKY/WX    TMP DP  RH WIND       PRES   REMARKS
ROCHESTER      FOG       27  27 100 SW7       29.89F VSB 1/2 WCI  19
RED WING       CLOUDY    28  25  86 CALM      29.91S FOG
STANTON        CLOUDY    29  27  90 SW5       29.88F FOG     WCI  24
DODGE CENTER   CLOUDY    28  27  93 SW6       29.89S FOG     WCI  22
WINONA         CLOUDY    32  30  93 SW3       29.93R FOG
AUSTIN         CLOUDY    27  27 100 W3        29.90F FOG
PRESTON        FOG       28  26  96 W3        29.90S VSB 3/4
$$
ABBREVIATIONS USED IN REMARKS
   TC - TEMPERATURES IN CELSIUS
  WCI - WIND CHILL INDEX
   HX - HEAT INDEX
  VSB - VISIBILITY
$$




USA.gov is the U.S. government's official web portal to all federal, state and local government web resources and services.